Wind_Speed
38 36 33 32 33 33 33 34 32 30 29 34 37 39 40 41 41 40 41 44 46 45 44 45 45 46 47 49 51 52 54 55 56 56 55 55 56 57 60 63 64 65 64 64
40 38 39 40 39 37 35 33 34 35 36 44 48 48 48 49 50 51 53 54 53 52 50 50 49 50 51 52 54 55 56 56 56 56 56 56 57 60 63 65 67 65 63 59
38 38 39 42 41 42 44 44 45 45 48 50 49 49 49 50 51 52 54 54 54 54 54 53 52 52 52 53 53 54 55 55 54 55 56 58 59 61 65 66 64 61 57 54
36 37 39 38 38 41 43 45 47 48 48 48 47 47 47 47 49 50 51 52 53 53 54 53 52 51 51 51 51 51 51 51 52 54 57 59 61 64 66 64 59 55 52 51
34 35 35 32 36 39 40 43 44 45 45 45 44 46 46 46 47 48 49 49 50 50 50 50 49 48 48 47 47 48 49 49 52 55 58 60 61 62 60 57 52 49 49 49
31 32 31 34 36 37 37 41 40 40 40 40 41 43 44 44 45 46 46 47 47 47 47 46 45 45 44 44 44 45 47 49 52 56 58 57 56 54 51 48 46 47 48 48
27 29 31 33 34 35 38 41 40 39 39 39 40 41 41 42 42 42 43 43 42 42 41 40 40 39 39 40 41 43 46 50 53 54 53 50 48 46 45 45 46 46 46 45
26 28 32 32 33 35 37 37 38 37 38 38 38 39 39 39 38 38 38 37 37 36 35 35 34 34 36 38 41 43 46 48 48 47 46 44 43 43 43 43 43 41 40 38
26 27 29 30 32 33 34 35 35 36 36 37 37 37 36 35 34 33 32 32 31 31 30 30 30 32 35 38 41 42 43 41 40 39 39 40 41 41 40 39 36 34 32 29
25 27 29 30 31 32 32 33 34 34 35 35 34 33 32 31 29 28 27 27 26 26 26 27 29 32 35 36 37 36 34 33 34 35 36 37 38 36 34 31 28 26 24 23
23 26 27 28 29 29 30 30 31 31 30 28 27 25 24 23 22 22 22 21 21 22 23 25 27 28 28 28 28 29 30 31 33 34 34 33 30 27 25 22 21 20 20 20
22 24 25 26 26 26 25 24 23 22 20 19 18 17 16 16 15 15 16 17 18 20 20 21 21 22 23 24 26 28 30 31 31 30 27 25 22 20 19 18 19 20 20 19
20 21 22 22 21 19 18 15 14 13 11 10 9 9 9 9 10 11 12 13 14 14 15 16 18 20 22 24 26 28 29 28 26 24 21 20 19 18 17 17 18 18 18 17
15 15 15 15 14 12 10 9 7 6 4 4 4 3 3 4 6 8 9 9 10 12 14 16 18 21 24 26 27 27 25 24 22 20 18 18 18 17 17 17 17 16 15 14
10 10 9 8 6 5 4 3 3 3 3 3 1 0 1 3 4 5 6 8 10 12 15 18 21 23 25 26 27 26 24 22 20 18 18 18 17 17 16 15 14 14 12 11
6 7 6 4 2 3 2 2 4 5 4 4 3 3 3 4 5 6 7 9 12 14 17 21 23 25 26 26 25 23 21 20 19 18 18 17 16 15 14 12 12 11 10 9
4 5 4 2 1 2 4 5 6 5 4 4 4 5 6 6 7 8 9 11 14 17 20 23 25 26 26 26 25 23 21 19 18 17 17 16 14 13 11 10 9 8 8 8
3 3 3 3 2 4 6 6 5 5 5 5 6 7 7 7 8 9 11 13 16 19 22 24 25 26 26 25 24 22 20 19 18 17 16 14 13 11 9 8 8 7 7 8
3 1 1 1 3 6 6 6 5 5 6 7 8 8 8 8 9 10 12 15 17 20 23 25 25 26 26 25 23 22 21 20 19 17 16 13 12 10 9 8 8 7 8 10
3 2 1 1 4 5 5 4 5 6 7 8 8 8 8 8 10 11 13 16 19 22 24 25 25 26 27 26 25 25 24 22 21 19 16 14 12 11 10 10 9 9 10 11
5 3 2 3 3 4 4 4 5 7 8 8 9 8 8 9 10 12 14 17 20 22 23 25 27 28 28 27 28 29 27 25 23 21 18 16 14 13 12 12 11 11 12 13
6 5 4 4 4 4 4 5 6 8 9 9 9 8 8 9 11 12 15 18 20 22 23 27 29 30 29 30 32 32 30 29 27 25 22 19 17 16 15 14 14 13 13 14
8 6 6 5 5 5 6 6 7 9 10 10 9 9 9 10 11 12 15 17 20 22 24 27 29 30 30 33 35 35 34 33 32 30 27 24 22 20 18 16 15 15 14 14
10 8 7 7 7 7 7 8 9 10 11 11 10 9 9 10 11 12 14 17 19 21 24 27 29 30 32 35 36 37 37 37 36 35 34 31 28 24 22 20 18 16 15 14
11 10 9 8 8 8 8 9 10 11 12 12 11 10 9 9 10 11 13 15 17 19 22 26 28 30 33 35 36 37 38 39 39 39 39 37 35 32 28 25 22 19 17 15
13 12 11 10 9 9 10 10 11 13 13 13 12 11 10 10 10 11 12 13 15 17 20 23 26 28 31 33 35 36 37 39 40 41 41 42 41 39 37 33 30 26 23 20
15 14 13 12 12 11 11 12 12 13 14 14 13 12 11 10 10 10 11 12 13 14 17 20 23 26 28 31 33 34 36 38 39 40 41 42 42 43 42 40 38 35 31 28
Wind_Direction
241 236 236 239 240 240 239 236 241 247 252 259 260 260 262 264 266 270 279 285 287 285 283 282 281 281 282 283 284 286 287 288 290 291 292 293 294 294 295 295 295 295 295 297
247 243 240 240 241 243 245 247 251 255 259 258 258 260 263 266 270 275 280 282 283 283 282 282 282 283 283 284 285 286 287 288 290 291 291 292 292 293 294 293 293 294 297 298
251 249 247 247 248 249 249 251 253 256 258 263 266 268 270 272 273 275 277 279 280 281 283 284 284 284 284 284 284 285 286 288 289 290 290 291 292 292 291 291 293 295 299 301
253 252 252 255 252 252 254 256 259 261 264 268 271 274 275 275 275 277 278 280 282 283 284 285 286 285 285 284 284 285 286 287 288 289 289 290 290 290 292 293 295 298 302 302
254 255 256 255 256 257 258 259 262 265 268 270 274 275 275 276 278 279 280 281 282 283 284 284 285 285 284 284 284 285 286 287 288 288 288 288 289 290 292 296 300 302 303 303
254 254 252 250 254 259 262 264 266 268 271 272 274 274 277 278 280 280 281 282 283 284 284 284 284 284 284 284 284 285 286 287 286 287 288 289 291 294 297 300 303 304 304 304
255 254 250 252 256 259 260 265 271 273 274 274 274 275 278 280 281 282 283 284 284 285 285 285 285 285 284 284 284 283 284 284 285 286 288 293 297 301 304 304 304 304 305 306
258 256 253 257 259 261 265 270 272 274 275 276 277 278 279 280 281 282 283 284 285 285 286 287 287 287 286 284 283 282 283 285 287 290 295 299 303 305 305 306 306 307 307 307
261 261 263 264 265 267 269 271 273 274 275 277 277 278 279 280 281 283 284 285 285 286 287 288 287 285 282 281 281 283 287 291 296 301 303 305 306 307 308 309 310 310 310 310
262 263 267 269 271 272 273 274 275 275 276 276 276 277 277 278 280 282 284 286 288 289 290 288 285 282 282 285 288 293 300 304 306 306 307 308 310 312 314 315 316 316 317 317
266 268 270 271 273 274 275 275 276 276 276 275 274 273 275 277 279 282 286 290 292 293 292 289 288 289 295 300 306 308 309 309 309 311 313 316 318 320 321 322 324 325 325 325
270 270 272 274 275 276 275 275 275 276 274 271 269 269 272 275 279 285 291 294 296 296 296 299 303 307 310 312 312 311 312 314 317 319 321 324 326 328 329 329 330 331 331 331
274 276 277 278 276 274 272 272 274 274 268 265 264 266 272 279 285 292 297 303 308 312 317 319 320 318 317 317 318 319 321 323 325 327 329 331 333 333 334 335 335 335 336 336
279 283 282 281 276 270 264 269 270 258 245 240 244 258 277 291 299 307 317 328 333 332 331 328 327 326 326 326 327 328 330 331 332 334 335 337 337 337 338 339 339 340 339 340
289 295 297 290 275 258 244 254 235 189 167 160 153 64 344 347 354 1 1 355 348 343 340 338 336 335 335 335 336 336 337 337 338 339 339 340 340 340 339 340 343 344 346 350
305 316 316 303 253 209 202 169 143 132 127 119 105 82 62 52 43 30 16 5 359 354 349 346 344 344 343 343 342 342 342 342 342 341 341 342 343 344 344 344 348 353 359 6
315 341 356 13 97 155 160 152 140 130 120 108 98 86 77 66 50 35 25 16 7 0 356 353 352 352 351 351 351 350 350 349 348 348 347 348 349 350 353 357 2 9 16 27
306 350 23 57 107 134 142 141 136 126 115 108 99 93 82 67 54 43 32 21 12 6 3 2 1 1 1 2 1 359 360 0 359 357 357 358 359 3 8 14 18 27 39 51
269 317 8 83 123 128 128 130 130 127 121 114 109 99 84 70 59 48 36 26 19 15 13 12 12 12 13 13 12 14 15 12 9 8 9 10 13 20 28 34 42 54 64 72
242 247 231 143 133 128 128 134 135 132 128 124 117 105 89 75 63 52 40 32 27 25 23 22 23 24 24 23 24 26 24 21 20 20 23 27 33 41 47 53 62 73 79 83
229 223 205 177 158 148 147 148 144 140 139 133 124 110 94 80 68 57 47 40 37 34 32 33 34 34 32 32 34 34 32 30 30 32 35 40 46 53 57 62 72 81 84 87
222 216 209 195 184 177 169 162 155 151 148 142 130 115 100 86 74 63 55 49 46 43 41 42 42 40 39 39 41 40 38 38 39 40 44 49 54 59 63 69 75 81 85 87
217 214 210 201 194 188 180 169 162 158 155 148 137 123 108 94 81 72 64 58 53 50 49 49 48 46 45 46 46 45 44 44 45 47 50 54 57 60 64 69 74 78 83 87
214 209 206 202 197 190 183 175 168 165 162 155 145 132 118 103 92 82 72 65 60 56 55 55 54 52 51 51 50 49 49 49 50 51 53 55 58 61 64 68 72 75 79 83
212 209 205 204 201 193 185 180 176 172 168 163 154 141 128 115 103 93 82 73 67 62 59 59 58 56 55 54 53 52 52 52 53 54 55 56 58 60 63 66 69 71 73 76
208 207 206 205 204 199 193 189 184 179 175 170 162 151 140 128 117 105 93 82 74 67 63 62 61 59 57 56 55 55 54 54 54 55 56 57 58 60 62 64 66 67 68 70
207 207 207 208 208 204 199 195 190 185 181 177 171 162 153 142 131 118 105 92 83 74 69 66 64 62 60 59 57 56 56 56 56 56 57 58 59 60 61 62 63 64 65 67
Height
5749 5753 5755 5756 5757 5759 5760 5761 5762 5763 5763 5756 5753 5753 5753 5753 5751 5749 5747 5745 5744 5743 5742 5740 5738 5736 5733 5730 5726 5723 5719 5715 5711 5707 5702 5697 5692 5687 5681 5675 5669 5663 5657 5651
5739 5743 5745 5747 5749 5750 5751 5752 5752 5752 5752 5744 5743 5744 5745 5745 5744 5742 5739 5737 5734 5732 5730 5729 5726 5724 5721 5717 5713 5709 5705 5702 5698 5693 5689 5684 5679 5673 5667 5661 5655 5649 5643 5637
5729 5732 5733 5737 5740 5740 5741 5741 5740 5739 5736 5733 5734 5735 5736 5736 5735 5733 5730 5727 5723 5720 5718 5716 5713 5710 5707 5703 5700 5696 5692 5689 5685 5680 5676 5671 5665 5660 5654 5648 5642 5636 5630 5624
5719 5722 5723 5729 5727 5728 5730 5729 5728 5727 5725 5725 5725 5725 5725 5724 5723 5721 5718 5715 5712 5708 5705 5702 5699 5696 5693 5690 5687 5683 5680 5676 5672 5668 5663 5658 5653 5647 5641 5635 5629 5623 5618 5612
5710 5711 5714 5717 5714 5717 5718 5715 5715 5716 5717 5716 5716 5713 5712 5712 5710 5708 5705 5702 5699 5696 5693 5689 5686 5684 5681 5678 5675 5672 5668 5665 5660 5656 5651 5645 5640 5634 5628 5622 5617 5611 5606 5600
5701 5703 5705 5704 5705 5707 5709 5704 5706 5706 5706 5706 5705 5702 5701 5700 5698 5695 5693 5690 5687 5684 5681 5678 5675 5672 5669 5667 5664 5661 5657 5653 5649 5644 5639 5633 5627 5621 5616 5611 5605 5600 5594 5588
5693 5694 5694 5694 5696 5698 5699 5696 5696 5695 5695 5694 5693 5691 5690 5688 5686 5684 5681 5678 5675 5673 5670 5667 5664 5662 5659 5656 5653 5650 5647 5642 5638 5632 5627 5622 5615 5610 5605 5600 5594 5589 5583 5577
5685 5686 5687 5687 5688 5689 5688 5687 5686 5685 5684 5683 5682 5680 5679 5677 5676 5674 5671 5669 5666 5663 5660 5658 5655 5653 5650 5647 5644 5640 5636 5631 5626 5621 5616 5611 5606 5600 5594 5589 5583 5577 5571 5566
5680 5680 5679 5679 5679 5679 5679 5678 5677 5676 5674 5673 5672 5670 5669 5668 5666 5665 5662 5660 5658 5655 5653 5650 5648 5645 5642 5639 5635 5631 5627 5622 5616 5611 5606 5601 5596 5590 5584 5578 5572 5567 5562 5557
5673 5672 5672 5671 5671 5671 5670 5669 5667 5666 5665 5664 5662 5661 5660 5659 5658 5657 5655 5653 5651 5648 5646 5643 5641 5638 5634 5631 5626 5622 5618 5613 5608 5603 5598 5592 5586 5580 5574 5569 5564 5560 5555 5551
5667 5666 5665 5664 5663 5662 5661 5660 5658 5657 5656 5655 5654 5654 5653 5653 5652 5651 5649 5647 5645 5643 5641 5638 5635 5631 5627 5623 5619 5615 5611 5606 5601 5595 5589 5583 5577 5572 5567 5563 5559 5555 5551 5547
5661 5660 5658 5657 5656 5655 5653 5652 5651 5650 5649 5649 5648 5648 5648 5648 5647 5646 5645 5643 5641 5639 5636 5633 5630 5626 5623 5619 5614 5610 5604 5599 5593 5587 5582 5577 5572 5567 5563 5559 5555 5551 5548 5544
5655 5653 5652 5650 5649 5648 5647 5647 5646 5645 5645 5645 5645 5645 5645 5645 5644 5643 5642 5640 5638 5636 5633 5630 5627 5623 5619 5614 5609 5603 5598 5592 5586 5581 5577 5572 5568 5564 5560 5556 5553 5549 5545 5542
5650 5649 5647 5645 5644 5643 5643 5643 5643 5643 5643 5644 5644 5644 5644 5643 5643 5642 5640 5639 5637 5634 5632 5628 5625 5620 5615 5609 5604 5598 5592 5587 5582 5577 5572 5568 5564 5561 5557 5553 5550 5547 5544 5541
5647 5645 5644 5642 5641 5641 5641 5642 5642 5642 5643 5643 5644 5644 5644 5643 5642 5642 5640 5639 5637 5634 5631 5627 5622 5617 5611 5605 5598 5593 5587 5582 5578 5573 5569 5565 5562 5558 5555 5552 5549 5546 5543 5541
5645 5644 5642 5641 5641 5641 5641 5642 5643 5643 5644 5644 5645 5645 5644 5644 5643 5643 5641 5639 5637 5634 5630 5625 5620 5614 5607 5601 5595 5590 5584 5579 5575 5571 5567 5563 5560 5556 5553 5551 5548 5546 5543 5541
5645 5644 5642 5641 5641 5641 5642 5643 5644 5645 5645 5646 5646 5646 5646 5646 5645 5644 5642 5640 5637 5634 5629 5624 5618 5611 5605 5599 5593 5587 5582 5578 5573 5569 5565 5562 5558 5555 5553 5550 5548 5546 5544 5543
5645 5644 5643 5643 5642 5643 5644 5645 5646 5646 5647 5647 5648 5648 5648 5648 5647 5646 5644 5642 5638 5634 5629 5623 5617 5611 5604 5598 5592 5587 5582 5577 5573 5568 5564 5561 5558 5555 5553 5551 5549 5547 5546 5545
5645 5645 5645 5645 5645 5645 5646 5647 5648 5648 5649 5649 5650 5650 5651 5650 5650 5648 5646 5644 5640 5636 5630 5624 5618 5612 5606 5600 5594 5588 5583 5578 5573 5569 5565 5561 5558 5556 5554 5552 5550 5549 5549 5548
5645 5646 5646 5646 5647 5647 5648 5649 5649 5650 5651 5651 5652 5653 5654 5653 5652 5651 5649 5646 5642 5638 5633 5627 5622 5616 5609 5603 5597 5591 5585 5580 5575 5570 5566 5563 5560 5558 5556 5554 5553 5552 5552 5551
5645 5646 5647 5647 5648 5649 5649 5650 5651 5652 5653 5654 5655 5656 5656 5656 5655 5654 5652 5649 5645 5641 5637 5632 5626 5620 5614 5608 5601 5595 5589 5584 5578 5573 5569 5566 5563 5561 5559 5558 5557 5556 5556 5555
5644 5646 5647 5648 5649 5650 5651 5652 5653 5654 5655 5657 5658 5659 5659 5659 5658 5657 5655 5653 5649 5646 5642 5636 5630 5625 5620 5614 5607 5601 5595 5589 5583 5578 5573 5570 5567 5565 5563 5562 5561 5561 5560 5560
5644 5645 5647 5648 5649 5650 5652 5653 5654 5656 5657 5659 5661 5661 5662 5662 5661 5660 5659 5657 5654 5651 5647 5642 5637 5632 5627 5621 5614 5608 5602 5596 5590 5585 5580 5576 5573 5570 5569 5567 5566 5566 5565 5565
5643 5645 5646 5648 5650 5651 5653 5654 5655 5657 5659 5661 5663 5664 5665 5665 5664 5664 5663 5661 5659 5656 5653 5648 5643 5639 5635 5628 5622 5617 5611 5605 5599 5593 5588 5584 5580 5577 5575 5573 5572 5571 5571 5570
5641 5644 5646 5648 5649 5651 5653 5655 5657 5658 5660 5663 5664 5666 5667 5668 5668 5667 5666 5665 5664 5662 5659 5655 5651 5647 5642 5636 5631 5626 5621 5615 5610 5604 5598 5594 5589 5585 5583 5580 5579 5578 5577 5576
5640 5643 5645 5647 5649 5651 5653 5655 5657 5659 5661 5664 5666 5668 5669 5670 5670 5670 5670 5669 5668 5667 5664 5661 5658 5654 5649 5645 5640 5636 5631 5626 5621 5615 5610 5605 5600 5596 5592 5589 5587 5585 5583 5582
5638 5641 5644 5646 5648 5651 5653 5655 5657 5660 5662 5665 5667 5669 5671 5672 5673 5673 5673 5673 5673 5671 5669 5667 5664 5660 5657 5653 5650 5646 5641 5637 5632 5627 5622 5617 5613 5608 5604 5601 5597 5594 5592 5589